Location: Makanda
(37.6176°N, 89.2090°W)
Time: 15:49:46
(UTC+00:00)

Cosmos 1092 Rocket - Pass Details

Date: 23 September 2019
Orbit: 955 x 994 km, 83.0° (Epoch: 20 October)

Event Time Altitude Azimuth Distance (km) Brightness Sun altitude
Exits shadow 09:02:01 52° 355° (N) 1,179 4.4 -31.9°
Drops below altitude 10° 09:06:34 10° 5° (N) 2,698 6.6 -31.1°
Sets 09:09:05 0° 6° (N) 3,652 7.4 -30.7°
